Ladysmith, WI

12:30 PM CDT on May 26, 2017 (GMT -0500)
Rusk County

Weather History for KRCX - November, 2012

Change the Weather History Date:

Saturday, November 10, 2012

  Actual Average (KPBH) Record (KPBH)
Temperature  
Mean Temperature 48 °F -  
Max Temperature 59 °F 39 °F 64 °F (2010)
Min Temperature 37 °F 25 °F 17 °F (1996)
Degree Days  
Heating Degree Days 17    
Moisture  
Dew Point 43 °F    
Average Humidity 90    
Maximum Humidity 100    
Minimum Humidity 81    
Precipitation  
Precipitation 0.07 in - - ()
Sea Level Pressure  
Sea Level Pressure 29.78 in    
Wind  
Wind Speed 10 mph (ESE)    
Max Wind Speed 15 mph    
Max Gust Speed 23 mph    
Visibility 6 miles    
Events Rain , Thunderstorm    
Averages and records for this station are not official NWS values.
T = Trace of Precipitation, MM = Missing Value Source: NWS Daily Summary

Daily Weather History Graph

Daily Weather History Graph

Search for Another Location

Airport or City:

Trip Planner

Search our weather history database for the weather conditions in past years. The results will help you decide how hot, cold, wet, or windy it might be!

Date:

Astronomy

Nov. 10, 2012 Rise Set
Actual Time 6:56 AM CST 4:38 PM CST
Civil Twilight 6:25 AM CST 5:10 PM CST
Nautical Twilight 5:49 AM CST 5:45 PM CST
Astronomical Twilight 5:14 AM CST 6:20 PM CST
Moon 2:52 AM CST (11/10) 2:33 PM CST (11/10)
Length of Visible Light 10h 45m
Length of Day
9h 41m
Waning Crescent, 14% of the Moon is Illuminated
Nov 10
Waning Crescent
Nov 13
New
Nov 20
First Quarter
Nov 28
Full
Dec 6
Last Quarter

Hourly Weather History & Observations

Time (CST) Temp. Windchill Dew Point Humidity Pressure Visibility Wind Dir Wind Speed Gust Speed Precip Events Conditions
12:15 AM 41.0 °F 34.7 °F 35.6 °F 81% 30.05 in 10.0 mi East 10.4 mph 16.1 mph N/A   Overcast
12:35 AM 41.0 °F 35.8 °F 35.6 °F 81% 30.05 in 10.0 mi East 8.1 mph - N/A   Overcast
12:55 AM 41.0 °F 34.3 °F 35.6 °F 81% 30.03 in 10.0 mi ENE 11.5 mph - N/A   Overcast
1:15 AM 41.0 °F 35.8 °F 35.6 °F 81% 30.03 in 10.0 mi East 8.1 mph 17.3 mph N/A   Overcast
1:35 AM 41.0 °F 34.3 °F 35.6 °F 81% 30.01 in 10.0 mi East 11.5 mph 18.4 mph N/A   Overcast
1:55 AM 39.2 °F 33.6 °F 35.6 °F 87% 30.01 in 10.0 mi East 8.1 mph - N/A Rain Light Rain
2:15 AM 37.4 °F 32.1 °F 35.6 °F 93% 30.00 in 10.0 mi East 6.9 mph - N/A   Overcast
2:35 AM 37.4 °F 29.8 °F 35.6 °F 93% 29.99 in 10.0 mi ENE 11.5 mph - N/A   Overcast
2:55 AM 37.4 °F 30.8 °F 35.6 °F 93% 29.99 in 10.0 mi East 9.2 mph - N/A   Overcast
3:15 AM 37.4 °F 30.8 °F 35.6 °F 93% 29.99 in 10.0 mi East 9.2 mph - N/A   Overcast
4:15 AM 37.4 °F 29.8 °F 35.6 °F 93% 29.97 in 10.0 mi East 11.5 mph - N/A   Overcast
4:35 AM 37.4 °F 31.4 °F 35.6 °F 93% 29.96 in 10.0 mi East 8.1 mph - N/A   Overcast
4:55 AM 37.4 °F 30.3 °F 35.6 °F 93% 29.94 in 10.0 mi East 10.4 mph - N/A   Overcast
5:15 AM 37.4 °F 30.8 °F 35.6 °F 93% 29.94 in 10.0 mi East 9.2 mph - N/A   Overcast
5:55 AM 39.2 °F 31.6 °F 35.6 °F 87% 29.93 in 5.0 mi East 12.7 mph 17.3 mph N/A   Light Drizzle
6:15 AM 39.2 °F 32.5 °F 37.4 °F 93% 29.91 in 4.0 mi East 10.4 mph - 0.02 in Rain Light Rain
6:35 AM 39.2 °F 32.5 °F 37.4 °F 93% 29.92 in 4.0 mi East 10.4 mph - 0.02 in   Overcast
6:55 AM 39.2 °F 32.0 °F 37.4 °F 93% 29.90 in 5.0 mi East 11.5 mph 18.4 mph 0.02 in   Overcast
7:15 AM 39.2 °F 32.0 °F 37.4 °F 93% 29.89 in 7.0 mi East 11.5 mph 16.1 mph N/A   Overcast
7:35 AM 41.0 °F 33.9 °F 37.4 °F 87% 29.89 in 7.0 mi East 12.7 mph 18.4 mph N/A   Overcast
7:55 AM 41.0 °F 33.1 °F 37.4 °F 87% 29.87 in 5.0 mi East 15.0 mph 21.9 mph N/A   Overcast
8:15 AM 41.0 °F 33.1 °F 37.4 °F 87% 29.87 in 5.0 mi ESE 15.0 mph 23.0 mph N/A   Overcast
8:35 AM 41.0 °F 33.1 °F 39.2 °F 93% 29.86 in 5.0 mi ESE 15.0 mph 21.9 mph N/A   Overcast
8:55 AM 41.0 °F 33.9 °F 39.2 °F 93% 29.85 in 5.0 mi East 12.7 mph - N/A   Overcast
9:15 AM 42.8 °F 36.2 °F 39.2 °F 87% 29.84 in 3.0 mi ESE 12.7 mph 21.9 mph N/A   Overcast
9:35 AM 42.8 °F 35.8 °F 41.0 °F 93% 29.83 in 2.0 mi ESE 13.8 mph - N/A   Light Drizzle
9:55 AM 42.8 °F 35.8 °F 41.0 °F 93% 29.81 in 1.5 mi ESE 13.8 mph 17.3 mph 0.01 in Rain Light Rain
10:15 AM 42.8 °F 36.6 °F 41.0 °F 93% 29.80 in 1.2 mi ESE 11.5 mph - N/A   Overcast
10:35 AM 42.8 °F 37.0 °F 42.8 °F 100% 29.80 in 2.5 mi ESE 10.4 mph - N/A   Overcast
10:55 AM 44.6 °F 39.2 °F 42.8 °F 93% 29.78 in 2.5 mi ESE 10.4 mph - N/A   Overcast
11:15 AM 44.6 °F 38.8 °F 42.8 °F 93% 29.77 in 2.5 mi ESE 11.5 mph 16.1 mph N/A   Overcast
11:35 AM 44.6 °F 39.2 °F 42.8 °F 93% 29.76 in 2.5 mi ESE 10.4 mph - N/A   Overcast
11:55 AM 44.6 °F 38.1 °F 42.8 °F 93% 29.74 in 2.5 mi ESE 13.8 mph - N/A   Overcast
12:15 PM 44.6 °F 38.1 °F 42.8 °F 93% 29.74 in 2.0 mi SE 13.8 mph - N/A   Overcast
12:35 PM 44.6 °F 39.2 °F 44.6 °F 100% 29.73 in 2.0 mi ESE 10.4 mph - N/A   Overcast
12:55 PM 46.4 °F 41.9 °F 44.6 °F 93% 29.71 in 2.0 mi ESE 9.2 mph 17.3 mph N/A   Overcast
1:15 PM 46.4 °F 42.4 °F 44.6 °F 93% 29.70 in 1.8 mi ESE 8.1 mph - N/A   Overcast
1:35 PM 46.4 °F 41.9 °F 44.6 °F 93% 29.70 in 2.0 mi ESE 9.2 mph 16.1 mph N/A   Overcast
1:55 PM 46.4 °F 41.5 °F 44.6 °F 93% 29.69 in 1.8 mi ESE 10.4 mph - N/A   Overcast
2:15 PM 46.4 °F 41.5 °F 46.4 °F 100% 29.68 in 1.8 mi ESE 10.4 mph - N/A   Overcast
2:35 PM 48.2 °F - 46.4 °F 93% 29.68 in 2.0 mi ESE 6.9 mph - N/A   Overcast
2:55 PM 48.2 °F - 46.4 °F 93% 29.68 in 2.0 mi ESE 8.1 mph - N/A   Overcast
3:15 PM 50.0 °F - 46.4 °F 87% 29.69 in 2.0 mi SE 8.1 mph - N/A   Overcast
3:35 PM 50.0 °F - 46.4 °F 87% 29.69 in 2.0 mi SE 9.2 mph - N/A   Overcast
3:55 PM 50.0 °F - 46.4 °F 87% 29.68 in 2.0 mi ESE 9.2 mph - N/A   Overcast
4:15 PM 50.0 °F - 46.4 °F 87% 29.67 in 2.0 mi ESE 9.2 mph - N/A   Overcast
4:35 PM 50.0 °F - 46.4 °F 87% 29.67 in 2.0 mi ESE 9.2 mph - N/A   Overcast
4:55 PM 50.0 °F - 46.4 °F 87% 29.67 in 3.0 mi ESE 9.2 mph - N/A   Overcast
5:15 PM 50.0 °F - 46.4 °F 87% 29.67 in 3.0 mi ESE 6.9 mph - N/A   Mist
5:35 PM 48.2 °F - 46.4 °F 93% 29.66 in 3.0 mi ESE 9.2 mph - N/A   Clear
5:55 PM 50.0 °F - 46.4 °F 87% 29.66 in 3.0 mi ESE 10.4 mph - N/A   Clear
6:15 PM 50.0 °F - 48.2 °F 94% 29.65 in 4.0 mi ESE 10.4 mph - N/A   Clear
6:35 PM 50.0 °F - 48.2 °F 94% 29.65 in 4.0 mi ESE 9.2 mph - N/A   Clear
6:55 PM 50.0 °F - 48.2 °F 94% 29.64 in 4.0 mi ESE 9.2 mph - N/A   Clear
7:15 PM 50.0 °F - 46.4 °F 87% 29.64 in 4.0 mi East 9.2 mph - N/A   Clear
7:35 PM 50.0 °F - 48.2 °F 94% 29.64 in 4.0 mi ESE 6.9 mph - N/A   Clear
7:55 PM 50.0 °F - 48.2 °F 94% 29.65 in 5.0 mi ESE 6.9 mph - N/A   Scattered Clouds
8:15 PM 51.8 °F - 50.0 °F 94% 29.64 in 5.0 mi SE 8.1 mph - N/A   Mostly Cloudy
8:35 PM 53.6 °F - 50.0 °F 88% 29.64 in 7.0 mi SE 9.2 mph - N/A Rain Light Rain
8:55 PM 55.4 °F - 51.8 °F 88% 29.63 in 10.0 mi SE 11.5 mph - N/A   Mostly Cloudy
9:15 PM 55.4 °F - 51.8 °F 88% 29.62 in 10.0 mi SE 10.4 mph - N/A   Mostly Cloudy
9:35 PM 55.4 °F - 51.8 °F 88% 29.61 in 7.0 mi SE 12.7 mph 16.1 mph 0.04 in Rain , Thunderstorm Light Thunderstorms and Rain
9:55 PM 55.4 °F - 53.6 °F 94% 29.61 in 10.0 mi SE 10.4 mph - 0.04 in Thunderstorm Unknown
10:15 PM 57.2 °F - 53.6 °F 88% 29.60 in 10.0 mi SE 10.4 mph - N/A Thunderstorm Overcast
10:35 PM 59.0 °F - 53.6 °F 82% 29.60 in 10.0 mi SSE 11.5 mph 16.1 mph N/A Thunderstorm Overcast
10:55 PM 59.0 °F - 53.6 °F 82% 29.60 in 10.0 mi SSE 11.5 mph 16.1 mph N/A Thunderstorm Thunderstorm
11:15 PM 59.0 °F - 53.6 °F 82% 29.60 in 10.0 mi SSE 10.4 mph 19.6 mph N/A Rain Light Rain
11:35 PM 59.0 °F - 53.6 °F 82% 29.60 in 10.0 mi SSE 9.2 mph - N/A   Overcast
11:55 PM 59.0 °F - 53.6 °F 82% 29.59 in 10.0 mi SSE 11.5 mph - N/A   Overcast